Regional Weather Roundup
Issued by NWS

Home | Current Version | Previous Version | Text Only | Print | Product List | Glossary Off
Versions: 1 2 3 4 5 6 7 8 9 10 11 12 13 14 15 16 17 18 19 20 21 22 23 24 25 26 27 28 29 30 31 32 33 34 35 36 37 38 39 40 41 42 43 44 45 46 47 48 49 50

357
ASUS45 KCYS 060510
RWRWY

WYOMING REGIONAL WEATHER ROUNDUP
NATIONAL WEATHER SERVICE CHEYENNE WY
1100 PM MDT THU MAY 05 2016

NOTE:  "FAIR" INDICATES FEW OR NO CLOUDS BELOW 12,000 FEET
WITH NO SIGNIFICANT WEATHER AND/OR OBSTRUCTIONS TO VISIBILITY.

WYZ001-060600-
YELLOWSTONE NATIONAL PARK

CITY           SKY/WX    TMP DP  RH WIND       PRES   REMARKS
LK YELLOWSTONE   N/A     37  28  70 W3        30.14F
W YELLOWSTONE  NOT AVBL

$$
WYZ002>013-054>058-071-098>099-060600-
NORTHERN WYOMING

CITY           SKY/WX    TMP DP  RH WIND       PRES   REMARKS
JACKSON        FAIR      52  34  50 N9        30.03S
CODY           FAIR      63  34  34 SW15      29.94F
GREYBULL       FAIR      67  32  27 SE6       29.88R
WORLAND        FAIR      61  42  49 NE5       29.89S
SHERIDAN       FAIR      56  42  59 SW5       29.91S
BUFFALO        FAIR      64  33  31 W9        29.98S
GILLETTE       FAIR      52  44  74 S5        29.93S
HULETT         FAIR      63  43  48 S5        29.94F
NEWCASTLE      FAIR      63  28  27 E8        29.95S

$$
WYZ014>020-022>026-101>103-060600-
CENTRAL WYOMING

CITY           SKY/WX    TMP DP  RH WIND       PRES   REMARKS
BIG PINEY      FAIR      50  25  37 CALM      30.05R
PINEDALE       FAIR      48  32  53 NW3       30.06S
DUBOIS         FAIR      52  32  46 NW3       30.09S
LANDER         FAIR      59  33  37 SW8       29.95F
RIVERTON       FAIR      63  39  41 CALM      29.97S
CASPER         FAIR      51  39  63 CALM      29.99S
DOUGLAS        FAIR      56  40  55 SE3       30.00S

$$
WYZ021-027>030-104>119-060600-
SOUTHERN WYOMING

CITY           SKY/WX    TMP DP  RH WIND       PRES   REMARKS
EVANSTON       CLOUDY    57  33  40 S9        30.05R
KEMMERER         N/A     54  28  37 N7        30.03F
FORT BRIDGER   MOCLDY    59  36  41 SW18G25   30.05R
ROCK SPRINGS   FAIR      60  22  23 E12       30.02S
DIXON          FAIR      53  32  45 CALM      30.06F
RAWLINS        FAIR      51  32  48 E5        30.07F
SARATOGA       FAIR      50  32  50 S9G17     30.09F
LARAMIE        FAIR      51  34  52 E8        30.12F
CHEYENNE       FAIR      56  36  47 S6        30.08S
TORRINGTON     FAIR      59  41  51 E5        29.95S
PINE BLUFFS    FAIR      54  39  58 S8        30.04S

$$




USA.gov is the U.S. government's official web portal to all federal, state and local government web resources and services.